GFSWCAN_prec_radar_159.txt.gz
Reflectivity
10 3 -13 10 8 -2 -20 -1 14 -12 -9 -9 19 21 21 17 19 23 -11 13 4 24 -20 -20 4 14 9 -15 6 -13 9 27 35 19 8 19 -14 -15 2 -19 -20 -20 -20 -20 -20 -20 -20 -20 -20 -20 -20 -20 -20 -20
12 15 13 10 11 -8 4 -20 12 -19 -20 -20 -20 -16 11 3 -19 23 24 -14 10 29 -20 5 18 29 23 33 35 18 -20 -6 -19 7 6 -20 -20 -20 -20 -20 -20 -20 -20 -20 -20 -20 -20 -20 -20 -20 -20 -20 -20 -20
-20 -20 -20 -17 -20 -16 10 -12 8 8 -17 -20 -20 -20 -20 -18 -5 29 23 30 34 28 -20 -20 -4 20 29 24 20 42 -0 -9 -20 -19 0 3 -18 -20 -20 -20 -20 -20 -20 -20 -20 -20 -20 -20 -20 -20 -20 -20 -20 -20
-7 3 -19 -9 -20 -20 -20 -20 0 -0 -12 -9 6 -16 -6 -20 7 16 36 34 -20 -4 10 -19 -5 17 9 20 29 24 6 17 14 -13 1 -7 -7 -20 -20 -20 -20 -20 -20 -20 -20 -20 -20 -20 -20 -20 -20 -20 -20 -20
-20 -20 -20 -19 -20 -20 -20 -15 -14 12 17 -2 -15 -20 -6 -10 2 31 29 6 7 18 -5 12 19 21 38 32 24 34 21 33 19 17 -2 2 6 -20 -20 -20 -20 -20 -20 -20 -20 -20 -20 -20 -20 -20 -20 -20 -20 -20
-7 -5 -3 -2 -2 -2 -20 7 4 -19 7 19 16 14 -19 5 17 27 39 -11 17 26 1 6 30 37 42 42 39 27 17 20 26 -5 22 -4 -20 -20 -20 -20 -20 -20 -20 -20 -20 -20 -20 -20 -20 -20 -20 -20 -20 -20
30 30 29 21 11 -10 -15 -12 12 27 22 24 9 2 14 -20 -3 27 -19 -20 -20 -20 26 19 26 35 32 32 30 26 10 10 0 -20 -12 -20 -20 -20 -20 -20 -20 -20 -20 -20 -20 -20 -20 -20 -20 -20 -20 -20 -20 -20
31 33 38 38 27 20 21 22 23 21 16 5 10 17 16 13 -1 -10 21 -2 -20 -16 29 25 23 32 20 19 6 5 1 -16 -19 -16 -20 -20 -20 -20 -20 -20 -20 -20 -20 -20 -20 -20 -20 -20 -20 -20 -20 -20 -20 -20
24 15 19 33 31 22 20 22 18 17 18 12 18 10 11 19 25 -10 21 15 7 30 16 22 5 15 18 -8 -20 -20 -20 -20 -9 -18 -20 -20 -20 -20 -20 -20 -20 -20 -20 -20 -20 -20 -20 -20 -20 -20 -20 -20 -20 -20
14 16 2 20 16 13 13 15 23 19 -4 17 2 14 29 16 -15 20 10 37 11 10 -20 12 3 -19 -20 -3 -18 -20 -20 -20 -20 -20 -20 -20 -20 -20 -20 -20 -20 -20 -20 -20 -20 -20 -20 -20 -20 -20 -20 -20 -20 -20
-17 -4 2 11 9 -5 0 8 11 8 15 8 26 29 16 23 7 14 25 14 -20 -20 -20 -20 -20 -12 -18 -3 -19 -20 -20 -20 -20 -20 -20 -20 -20 -20 -20 -20 -20 -20 -20 -20 -20 -20 -20 -20 -20 -20 -20 -20 -20 -20
-6 -5 9 14 15 14 14 15 17 2 -6 -19 -0 24 8 31 20 19 7 -18 -20 -20 -20 -20 -20 -2 -9 -2 -3 -20 -20 -20 -20 -20 -20 -20 -20 -20 -20 -20 -20 -20 -20 -20 -20 -20 -20 -20 -20 -20 -20 -20 -20 -20
8 5 -16 -18 9 10 13 18 -17 2 11 -4 17 -8 5 -9 -12 -20 -20 -20 -20 -20 -20 -20 -20 -11 22 -19 -20 -20 -20 -20 -20 -20 -20 -20 -20 -20 -20 -20 -20 -20 -20 -20 -20 -20 -20 -20 -20 -20 -20 -20 -20 -20
14 12 6 11 10 -14 14 -20 -20 -14 -3 1 -20 -20 -20 -20 -20 -20 -20 -20 -16 -20 -20 -20 -20 -20 -20 -20 -20 -20 -20 -20 -20 -20 -20 -20 -20 -20 -20 -20 -20 -20 -20 -20 -20 -20 -20 -20 -20 -20 -20 -20 -20 -20
7 11 12 1 17 12 -6 2 17 -7 -20 -20 -20 -20 -20 -20 -20 -20 -20 -19 -20 -20 -18 -20 2 -20 -20 -20 -20 -20 -20 -20 -20 -20 -20 -20 -20 -20 -20 -20 -20 -20 -20 -20 -20 -20 -20 -20 -20 -20 -20 -20 -20 -20
17 10 13 16 28 16 -4 20 -6 -4 -20 -20 -20 -20 -20 -19 -20 -20 -20 -20 -20 -20 -18 6 1 -1 -20 -20 -20 -20 -20 -20 -20 -20 -20 -20 -20 -20 -20 -20 -20 -20 -20 -20 -20 -20 -20 -20 -20 -20 -20 -20 -20 -20
-13 17 16 10 -10 -5 4 -19 -20 -20 -19 -20 -19 -14 -14 -4 -8 -9 -20 -20 -20 -20 -20 -20 -20 -20 -20 -20 -20 -20 -20 -20 -20 -20 -20 -20 -20 -20 -20 -20 -20 -20 -20 -20 -20 -20 -20 -20 -20 -20 -20 -20 -20 -20
0 -10 -18 -20 -19 -19 -20 -20 -20 -20 -20 -16 -19 -5 -1 -10 -20 -20 -20 -20 -20 -20 -20 -20 -20 -20 -20 -20 -20 -20 -20 -20 -20 -20 -20 -20 -20 -20 -20 -20 -20 -20 -20 -20 -20 -20 -20 -20 -20 -20 -20 -20 -20 -20
-13 -20 -20 -20 -20 -20 -20 -20 -20 -20 -13 -13 -15 -20 -18 -2 -18 -20 -20 -20 -20 -20 -20 -20 -20 -20 -20 -20 -20 -12 -20 -20 -20 -20 -20 -20 -20 -20 -20 -20 -20 -20 -20 -20 -20 -20 -20 -20 -20 -20 -20 -20 -20 -20
5 -7 -19 -19 -20 -20 -20 -20 -20 -20 -14 9 -3 -14 -9 -2 -20 -17 -19 -16 -20 -20 -20 -20 -20 -18 -11 7 -17 -18 -20 -20 -20 -20 -20 -20 -20 -20 -20 -20 -20 -20 -20 -20 -20 -20 -20 -20 -20 -20 -20 -20 -20 -20
-20 -20 -11 -20 -20 -20 -20 -20 -20 -20 -20 5 -13 -18 -20 -13 -20 -18 -20 -20 -20 -20 -20 -20 -20 -20 -20 -20 -20 -20 -20 -20 -20 -20 -20 -20 -20 -20 -20 -20 -20 -20 -20 -20 -20 -20 -20 -20 -20 -20 -20 -20 -20 -20
-20 -20 -20 -20 -20 -20 -20 -20 -20 -20 -20 -10 -20 -20 -20 -20 -20 -20 -20 -20 -20 -20 -20 -20 -15 3 -5 -6 -20 -20 -20 -20 -20 -20 -20 -20 -20 -20 -20 -20 -20 -20 -20 -20 -20 -20 -20 -20 -20 -20 -20 -20 -20 -20
-20 -20 -20 -20 -20 -20 -20 -20 -20 -20 -20 -20 -20 -20 -20 -20 -20 -20 -20 -20 -20 -20 -20 -20 -19 -20 -9 -19 -20 -20 -20 -20 -20 -20 -20 -20 -20 -20 -20 -20 -20 -20 -20 -20 -20 -20 -20 -20 -20 -20 -20 -20 -20 -20
-20 -20 -20 -20 -20 -20 -20 -20 -20 -20 -20 -20 -20 -20 -20 -20 -20 -20 -20 -20 -20 -20 -20 -20 -20 -20 -20 -20 -20 -20 -20 -20 -20 -20 -20 -20 -20 -20 -20 -20 -20 -20 -20 -20 -20 -20 -20 -20 -20 -20 -20 -20 -20 -20
-20 -20 -20 -20 -20 -20 -20 -20 -20 -20 -20 -20 -20 -20 -20 -20 -20 -20 -20 -20 -20 -20 -20 -20 -20 -20 -20 -20 -20 -20 -20 -18 -20 -20 -20 -20 -20 -20 -20 -20 -20 -20 -20 -20 -20 -20 -20 -20 -20 -20 -20 -20 -20 -20
-20 -20 -20 -20 -20 -20 -20 -20 -20 -20 -20 -20 -20 -20 -20 -20 -20 -20 -20 -20 -20 -20 -20 -20 -20 -20 -20 -20 -20 -20 -20 -20 -20 -20 -20 -20 -20 -20 -20 -20 -20 -20 -20 -20 -20 -20 -20 -20 -20 -20 -20 -20 -20 -20
-20 -20 -20 -20 -20 -20 -20 -20 -20 -20 -20 -20 -20 -20 -20 -20 -20 -20 -20 -20 -20 -20 -20 -20 -20 -20 -20 -20 -20 -20 -20 -20 -20 -20 -20 -20 -20 -20 -20 -20 -20 -20 -20 -20 -20 -20 -20 -20 -20 -20 -20 -20 -20 -20
-20 -20 -20 -20 -20 -20 -20 -20 -20 -20 -20 -20 -20 -20 -20 -20 -20 -20 -20 -20 -20 -20 -20 -20 -20 -20 -20 -20 -20 -20 -20 -20 -20 -20 -20 -20 -20 -20 -20 -20 -20 -20 -20 -20 -20 -20 -20 -20 -20 -20 -20 -20 -20 -20
-20 -20 -20 -20 -20 -20 -20 -20 -20 -20 -20 -20 -20 -20 -20 -20 -20 -20 -20 -20 -20 -20 -20 -20 -20 -20 -20 -20 -20 -20 -20 -20 -20 -20 -20 -20 -20 -20 -20 -20 -20 -20 -20 -20 -20 -20 -20 -20 -20 -20 -20 -20 -20 -20
-20 -20 -20 -20 -20 -20 -20 -20 -16 -17 -20 -20 -20 -20 -20 -20 -20 -20 -20 -20 -20 -20 -20 -20 -20 -20 -20 -20 -20 -20 -20 -20 -20 -20 -20 -20 -20 -20 -20 -20 -20 -20 -20 -20 -20 -20 -20 -20 -20 -20 -20 -20 -20 -20
-20 -20 -20 -20 -20 -20 -20 -20 -6 -20 -20 -20 -20 -20 -20 -20 -20 -20 -20 -20 -20 -20 -20 -20 -20 -20 -20 -20 -20 -20 -20 -20 -20 -20 -20 -20 -20 -20 -20 -20 -20 -20 -20 -20 -20 -20 -20 -20 -20 -20 -20 -20 -20 -20
-20 -20 -20 -20 -20 -20 -20 -20 -20 -20 -20 -20 -20 -20 -20 -20 -20 -20 -20 -20 -20 -20 -0 -8 -20 -20 -20 -20 -20 -20 -20 -20 -20 -20 -20 -20 -20 -20 -20 -20 -20 -20 -20 -20 -20 -20 -20 -20 -20 -20 -20 -20 -20 -20
-20 -20 -20 -20 -20 -20 -20 -20 -20 -20 -20 -20 -20 -20 -20 -20 -20 -20 -20 -20 -20 -20 -20 -20 -20 -20 -20 -20 -20 -20 -20 -20 -20 -20 -20 -20 -20 -20 -20 -20 -20 -20 -20 -20 -20 -20 -20 -20 -20 -20 -20 -20 -20 -20

GFSWCAN_prec_radar_162.txt.gz
Reflectivity
9 14 -19 5 -11 3 19 -20 -20 -20 -20 -20 -5 -20 -20 24 21 14 -10 11 3 21 -7 -9 5 -11 26 33 16 11 20 13 23 16 11 12 -2 -20 -20 -20 -9 -8 1 0 -1 15 4 -20 -20 -20 -20 -20 -20 -20
-7 9 15 15 11 -20 23 -12 0 20 -20 -20 1 -11 -20 -20 16 23 -17 -1 17 23 -1 10 -9 17 11 13 31 13 19 -20 -20 -16 -19 -19 12 0 1 7 -14 8 0 -20 -19 -20 -20 -16 -20 -20 -20 -20 -20 -20
-5 3 11 13 3 -20 -20 -20 -6 -0 -14 15 -20 -20 20 19 22 19 -16 -14 17 22 2 12 6 12 0 -18 17 24 4 6 1 -15 -14 21 -16 -20 -10 -7 2 16 -4 -20 -20 -20 -20 -20 -20 -20 -20 -20 -20 -20
-20 -13 10 -1 -20 -4 -19 15 -11 -11 11 -20 -20 -20 -20 -20 -16 -5 -20 -13 12 22 0 -20 -20 -20 10 9 15 14 13 22 30 12 -20 19 -5 7 -6 -4 11 -12 -20 -20 -20 -20 -20 -20 -20 -20 -20 -20 -20 -20
-20 -20 13 -16 -15 -7 -12 -20 -5 -10 -20 -20 -20 -20 -20 -20 -18 1 -20 -20 -6 35 14 -7 -20 -20 -20 -16 -15 -8 10 28 41 29 22 10 -20 -20 10 14 3 -20 -20 -20 -20 -20 -20 -20 -20 -20 -20 -20 -20 -20
-20 -2 6 -15 -3 -1 -20 -20 -20 -8 -19 13 1 18 18 -8 17 13 22 -16 20 35 30 -8 -20 -20 -5 -20 2 9 20 36 39 29 8 -7 -20 -3 -20 -20 -10 -20 -20 -20 -20 -20 -20 -20 -20 -20 -20 -20 -20 -20
-12 -7 -6 -2 -16 -20 -20 -20 -20 -20 -20 8 -8 8 -19 14 -15 -13 20 4 -20 32 26 16 -19 9 18 18 12 20 42 43 35 28 37 20 -1 -3 -20 -7 8 -20 -20 -20 -20 -20 -20 -20 -20 -20 -20 -20 -20 -20
14 5 -7 -12 1 -1 -14 -20 -15 -20 -11 16 -1 21 16 15 19 19 29 24 -1 -3 -3 -1 2 7 30 30 29 40 33 26 15 11 -0 4 -11 -20 -20 -20 -20 -20 -20 -20 -20 -20 -20 -20 -20 -20 -20 -20 -20 -20
30 26 26 24 10 4 6 -20 -15 -1 7 17 33 20 20 21 17 -3 14 34 14 -15 -10 -2 4 26 35 32 34 27 23 13 6 -5 -17 -16 -20 -19 -20 -20 -20 -20 -20 -20 -20 -20 -20 -20 -20 -20 -20 -20 -20 -20
22 27 32 33 35 23 6 -20 -20 6 38 26 19 22 9 -20 -2 14 36 40 23 4 23 6 28 24 26 17 7 3 -3 -20 -20 -20 -15 -16 -20 -20 -20 -20 -20 -20 -20 -20 -20 -20 -20 -20 -20 -20 -20 -20 -20 -20
-11 -18 -1 27 35 18 14 7 19 37 19 9 13 -18 -5 4 17 16 13 -7 22 -20 -18 11 28 17 16 14 7 -12 -18 -20 -20 -20 -20 -20 -14 -15 -20 -20 -20 -20 -20 -20 -20 -20 -20 -20 -20 -20 -20 -20 -20 -20
14 17 16 30 17 12 12 20 33 13 -11 -20 -6 20 -1 16 -15 -4 -5 2 -17 -20 -20 -20 -14 2 8 -19 -18 -14 -20 -20 -20 -20 -20 -20 -20 -20 -20 -20 -20 -20 -20 -20 -20 -20 -20 -20 -20 -20 -20 -20 -20 -20
9 12 16 15 12 15 23 25 -17 -20 6 4 16 -18 16 10 -17 -18 -20 -20 -20 -20 -20 -20 -20 -20 -20 -20 -20 -20 -20 -20 -20 -20 -20 -20 -20 -20 -20 -20 -20 -20 -20 -20 -20 -20 -20 -20 -20 -20 -20 -20 -20 -20
18 17 6 7 11 17 22 2 -18 -13 22 8 -20 -20 4 -20 -20 -20 -20 -20 -20 -20 -20 -20 -11 -20 -20 -20 -20 -20 -20 -20 -20 -20 -20 -20 -20 -20 -20 -20 -20 -20 -20 -20 -20 -20 -20 -20 -20 -20 -20 -20 -20 -20
9 7 -1 12 2 2 -18 14 -20 5 14 -3 -20 -20 -20 -20 -20 -20 -20 -20 -20 -20 -20 -20 -20 -20 -3 -20 -20 -20 -20 -20 -20 -20 -20 -20 -20 -20 -20 -20 -20 -20 -20 -20 -20 -20 -20 -20 -20 -20 -20 -20 -20 -20
4 -17 2 14 6 2 -7 20 2 15 -16 -20 -20 -20 -20 -20 -20 -20 -20 -20 -20 -20 -20 -20 -19 -20 -20 -20 -20 -20 -20 -20 -20 -20 -20 -20 -20 -20 -20 -20 -20 -20 -20 -20 -20 -20 -20 -20 -20 -20 -20 -20 -20 -20
-16 16 5 -4 -20 12 22 -20 -19 -18 -20 -20 -20 -20 -20 -20 -20 -20 -20 -20 -20 -20 -20 -20 -20 -20 -20 -20 -20 -20 -20 -20 -20 -20 -20 -20 -20 -20 -20 -20 -20 -20 -20 -20 -20 -20 -20 -20 -20 -20 -20 -20 -20 -20
26 28 -15 12 8 -12 -20 -20 -20 -20 -20 -20 -20 -20 -20 -20 -20 -20 -20 -20 -20 -20 -20 -20 -20 -20 -20 -20 -20 -20 -20 -20 -20 -20 -20 -20 -20 -20 -20 -20 -20 -20 -20 -20 -20 -20 -20 -20 -20 -20 -20 -20 -20 -20
-15 -17 2 8 -7 -20 -20 -20 -20 -20 -20 -20 -16 -20 -20 -20 -20 -20 -20 -20 -20 -18 -14 -20 -20 -20 -20 -20 -20 -20 -20 -20 -20 -20 -20 -20 -20 -20 -20 -20 -20 -20 -20 -20 -20 -20 -20 -20 -20 -20 -20 -20 -20 -20
-10 -13 -20 -20 -20 -20 -20 -20 -20 -20 -20 -19 -19 -20 -20 -18 -20 -18 -15 -20 -20 -20 -20 -20 -20 -20 -20 -20 -20 -14 -17 -20 -20 -20 -20 -20 -20 -20 -20 -20 -20 -20 -20 -20 -20 -20 -20 -20 -20 -20 -20 -20 -20 -20
-20 -20 -20 -20 -20 -20 -20 -20 -20 -20 -20 -20 -17 -14 -19 -20 -15 -15 -16 -20 -20 -20 -20 -20 -20 -20 -20 -20 -20 -2 -4 -20 -20 -20 -20 -20 -20 -20 -20 -20 -20 -20 -20 -20 -20 -20 -20 -20 -20 -20 -20 -20 -20 -20
-20 -20 -20 -20 -17 -20 -20 -20 -20 -20 -20 -15 -20 -20 -20 -20 -20 -20 -20 -20 -20 -20 -20 -20 -20 -20 -17 -19 -20 -20 -20 -20 -20 -20 -20 -20 -20 -20 -20 -20 -20 -20 -20 -20 -20 -20 -20 -20 -20 -20 -20 -20 -20 -20
-20 -20 -20 -20 -20 -20 -20 -20 -20 -20 -20 -20 -20 -20 -20 -20 -20 -20 -20 -20 -20 -20 -20 -20 -20 -19 -17 -20 -20 -20 -20 -20 -20 -20 -20 -20 -20 -20 -20 -20 -20 -20 -20 -20 -20 -20 -20 -20 -20 -20 -20 -20 -20 -20
-20 -20 -20 -20 -20 -20 -20 -20 -20 -20 -20 -20 -20 -20 -20 -20 -20 -20 -20 -20 -20 -20 -20 -20 -20 -20 -20 -20 -20 -20 -20 -20 -20 -20 -20 -20 -20 -20 -20 -20 -20 -20 -20 -20 -20 -20 -20 -20 -20 -20 -20 -20 -20 -20
-20 -20 -20 -20 -20 -20 -20 -20 -20 -20 -20 -20 -20 -20 -20 -20 -20 -20 -20 -20 -20 -20 -20 -20 -20 -20 -20 -20 -20 -20 -20 -20 -20 -20 -20 -20 -20 -20 -20 -20 -20 -20 -20 -20 -20 -20 -20 -20 -20 -20 -20 -20 -20 -20
-20 -20 -20 -20 -20 -20 -20 -20 -20 -20 -20 -20 -20 -20 -20 -20 -20 -20 -20 -20 -20 -20 -20 -20 -20 -20 -20 -20 -20 -20 -20 -20 -20 -20 -20 -20 -20 -20 -20 -20 -20 -20 -20 -20 -20 -20 -20 -20 -20 -20 -20 -20 -20 -20
-20 -20 -20 -20 -20 -20 -20 -20 -20 -20 -20 -20 -20 -20 -20 -20 -20 -20 -20 -20 -20 -20 -20 -20 -20 -20 -20 -20 -20 -20 -20 -20 -20 -20 -20 -20 -20 -20 -20 -20 -20 -20 -20 -20 -20 -20 -20 -20 -20 -20 -20 -20 -20 -20
-20 -20 -20 -20 -20 -20 -20 -20 -20 -20 -20 -20 -20 -20 -20 -20 -20 -20 -20 -20 -20 -20 -20 -20 -20 -20 -20 -20 -20 -20 -20 -20 -20 -20 -20 -20 -20 -20 -20 -20 -20 -20 -20 -20 -20 -20 -20 -20 -20 -20 -20 -20 -20 -20
-20 -20 -20 -20 -20 -20 -20 -20 -20 -20 -20 -20 -20 -20 -20 -20 -20 -20 -20 -20 -20 -20 -20 -20 -20 -20 -20 -20 -20 -20 -20 -20 -20 -20 -20 -20 -20 -20 -20 -20 -20 -20 -20 -20 -20 -20 -20 -20 -20 -20 -20 -20 -20 -20
-20 -20 -20 -20 -20 -20 -20 -20 -20 -20 -7 -20 -20 -20 -20 -20 -20 -20 -20 -20 -20 -20 -20 -20 -20 -20 -20 -20 -20 -20 -20 -20 -20 -20 -20 -20 -20 -20 -20 -20 -20 -20 -20 -20 -20 -20 -20 -20 -20 -20 -20 -20 -20 -20
-20 -20 -20 -20 -20 -20 -20 -20 -20 -20 -20 -20 -20 -20 -20 -20 -20 -20 -20 -20 -20 -20 -20 -20 -20 -20 -20 -20 -20 -20 -20 -20 -20 -20 -20 -20 -20 -20 -20 -20 -20 -20 -20 -20 -20 -20 -20 -20 -20 -20 -20 -20 -20 -20
-20 -20 -20 -20 -20 -20 -20 -20 -20 -20 -20 -20 -20 -20 -20 -20 -20 -20 -20 -20 -19 -20 -20 -20 -20 -20 -20 -20 -20 -20 -20 -20 -20 -20 -20 -20 -20 -20 -20 -20 -20 -20 -20 -20 -20 -20 -20 -20 -20 -20 -20 -20 -20 -20
-20 -20 -20 -20 -20 -20 -20 -20 -20 -20 -20 -20 -20 -20 -20 -20 -20 -20 -20 -20 -19 -20 -20 -20 -20 -20 -20 -20 -20 -20 -20 -20 -20 -20 -20 -20 -20 -20 -20 -20 -20 -20 -20 -20 -20 -20 -20 -20 -20 -20 -20 -20 -20 -20

GFSWCAN_prec_radar_165.txt.gz
Reflectivity
17 16 19 13 -17 -2 23 14 -7 -20 -20 -20 -20 -20 -6 20 18 -8 -9 12 1 24 -10 3 15 29 -13 -12 8 22 14 -1 4 15 20 21 9 -20 -20 -20 -20 -20 -20 -14 15 6 -13 -20 -20 -10 -20 -20 -20 -20
13 16 11 -16 -15 24 23 -14 -3 -20 -20 -20 -20 -20 12 22 19 -11 -18 -6 3 24 -20 -4 -1 -19 -19 -20 16 13 38 8 -20 6 -13 -20 -5 -1 -20 -20 -20 -20 -20 -20 -18 -11 2 9 -19 -20 -20 -20 -20 -20
8 3 -20 -19 -20 23 21 17 19 -20 -20 -20 -20 -20 -20 -6 19 -19 -1 19 21 33 8 -6 -19 -12 -20 -20 -7 20 -4 30 26 28 15 9 11 -20 -18 16 9 -20 -20 -20 -15 7 13 -3 -20 -20 -20 -20 -20 -20
-4 -20 -19 -20 -15 -5 14 17 -10 6 -20 17 -20 -20 -20 -20 9 -5 -20 6 10 12 16 -20 -20 -20 -19 -20 -20 -5 -14 -1 0 8 13 24 -20 -20 -20 -20 -4 0 -5 -4 5 -20 -20 -20 -20 -20 -20 -20 -20 -20
1 -20 -20 -14 -14 14 15 1 -20 -20 -20 -20 -8 -20 -20 -7 22 18 7 -10 -20 15 11 11 -14 -20 -20 -1 5 7 2 11 6 -20 -20 -5 7 -20 -20 -20 -20 -8 -13 10 -20 -9 -15 -20 -20 -20 -20 -20 -20 -20
-11 -20 -20 -20 -8 -8 15 -20 -20 9 -20 -20 -20 -12 -20 -4 18 15 -20 -20 -20 -20 7 -9 -20 -20 -20 -12 -1 3 10 19 19 15 20 18 -14 -19 -16 1 -20 18 9 -20 -20 -20 -20 -20 -20 -20 -20 -20 -20 -20
7 2 -20 -20 -20 -20 -20 -20 -20 -20 -20 -20 -20 -4 18 16 -20 -20 -20 28 22 -12 19 -10 -20 -20 -20 -3 6 7 -1 15 8 6 -9 11 15 -19 0 -19 -20 4 -16 -20 -20 -20 -20 -20 -20 -20 -20 -20 -20 -20
-20 -13 -5 -20 -20 -4 -20 -20 -20 -20 -20 -20 -11 21 22 18 12 -1 -20 35 21 26 35 19 -20 -20 -13 5 -2 20 28 26 4 18 25 19 10 16 9 -8 4 -20 -20 -20 -20 -20 -20 -20 -20 -20 -20 -20 -20 -20
7 9 1 -20 -19 -17 -20 -20 -20 -20 -20 -20 -7 18 16 22 10 -5 8 10 2 26 6 -17 -20 -7 27 32 33 35 34 22 26 15 16 33 28 23 0 -19 -4 4 -18 -20 -20 -20 -20 -20 -20 -20 -20 -20 -20 -20
24 22 10 9 -8 -13 -20 -20 -20 -20 -20 -6 27 40 14 1 11 15 32 31 36 32 -12 -20 25 8 32 33 17 18 8 13 15 7 -1 -19 -20 3 11 -16 -20 -20 -20 -20 -20 -20 -20 -20 -20 -20 -20 -20 -20 -20
30 28 20 18 2 8 -20 -20 -17 6 3 39 28 -10 -10 -11 -19 13 23 27 20 10 -13 -18 1 15 34 12 -12 -7 -7 -4 5 -15 -18 -20 -20 -20 -20 7 -2 -20 -20 -20 -20 -20 -20 -20 -20 -20 -20 -20 -20 -20
3 17 21 16 21 -8 10 12 16 16 28 21 -15 -20 8 -20 13 -20 -20 -20 -18 -20 -19 4 14 30 16 22 20 14 9 -4 -20 -20 -18 -20 -10 -1 -20 -20 -20 -20 -20 -20 -20 -20 -20 -20 -20 -20 -20 -20 -20 -20
8 7 25 35 25 5 5 14 -3 26 -13 20 -4 -19 -6 -20 -15 -20 -20 -20 -20 -20 -18 -11 -9 -11 -18 -18 -19 -20 -20 -20 -20 -20 -19 -18 -20 -20 -20 -20 -20 -20 -20 -20 -20 -20 -20 -20 -20 -20 -20 -20 -20 -20
9 13 25 22 13 13 9 17 22 15 12 7 15 -20 -19 -20 -20 -20 -20 -20 -20 -20 -20 -20 -20 -19 -18 -20 -20 -20 -20 -20 -15 -12 -20 -20 -20 -20 -20 -20 -20 -20 -20 -20 -20 -20 -20 -20 -20 -20 -20 -20 -20 -20
4 11 8 8 9 3 3 -13 -20 -20 -20 -1 5 -4 -20 -20 -20 -20 -20 -20 -20 -20 -20 -20 -20 -20 -20 -20 -20 -20 -20 -20 -20 -20 -20 -20 -20 -20 -20 -20 -20 -20 -20 -20 -20 -20 -20 -20 -20 -20 -20 -20 -20 -20
9 5 9 3 -3 -20 -6 -9 -3 15 9 -20 -20 -20 -20 -20 -20 -20 -20 -20 -20 -20 -20 -20 -20 -20 -20 -20 -20 -20 -20 -20 -20 -20 -20 -20 -20 -20 -20 -20 -20 -20 -20 -20 -20 -20 -20 -20 -20 -20 -20 -20 -20 -20
-18 6 9 -3 -20 -16 -15 -18 11 12 -20 -20 -20 -20 -20 -18 -20 -20 -20 -20 -20 -20 -20 -20 -20 -20 -20 -20 -20 -20 -20 -20 -20 -20 -20 -20 -20 -20 -20 -20 -20 -20 -20 -20 -20 -20 -20 -20 -20 -20 -20 -20 -20 -20
7 18 -8 -20 -8 -18 14 12 14 -18 -20 -20 -20 -20 -18 -18 -17 -20 -20 -20 -20 -20 -20 -20 -20 -20 -20 -20 -20 -20 -20 -20 -20 -20 -20 -20 -20 -20 -20 -20 -20 -20 -20 -20 -20 -20 -20 -20 -20 -20 -20 -20 -20 -20
-19 0 11 16 -12 -12 -7 -20 -20 -20 -20 -20 -20 -20 -20 -20 -20 -20 -20 -20 -20 -20 -20 -20 -20 -20 -20 -20 -20 -20 -20 -20 -20 -20 -20 -20 -20 -20 -20 -20 -20 -20 -20 -20 -20 -20 -20 -20 -20 -20 -20 -20 -20 -20
-20 0 5 -6 -20 -20 -20 -20 -20 -20 -20 -20 -20 -20 -20 -20 -20 -20 -20 -20 -20 -7 3 -20 -20 -20 -20 -20 -20 -17 -18 -20 -20 -20 -20 -20 -20 -20 -20 -20 -20 -20 -20 -20 -20 -20 -20 -20 -20 -20 -20 -20 -20 -20
-20 -20 -20 -20 -20 -20 -20 -20 -20 -20 -20 -20 -20 -20 -20 -20 -19 -20 -19 -20 -19 -20 -20 -20 -20 -20 -20 -20 -20 -19 -20 -20 -20 -20 -20 -20 -20 -20 -20 -20 -20 -20 -20 -20 -20 -20 -20 -20 -20 -20 -20 -20 -20 -20
-20 -20 -20 -20 -20 -20 -20 -20 -20 -20 -20 -20 -20 -20 -20 -20 -18 -9 -19 -20 -20 -20 -20 -20 -20 -20 -20 -20 -20 -20 -20 -20 -20 -20 -20 -20 -20 -20 -20 -20 -20 -20 -20 -20 -20 -20 -20 -20 -20 -20 -20 -20 -20 -20
-19 -20 -20 -20 -20 -20 -20 -20 -20 -20 -20 -20 -20 -20 -20 -20 -20 -20 -19 -20 -20 -20 -20 -20 -20 -20 -20 -20 -20 -20 -20 -20 -20 -20 -20 -20 -20 -20 -20 -20 -20 -20 -20 -20 -20 -20 -20 -20 -20 -20 -20 -20 -20 -20
-20 -20 -20 -20 -20 -20 -20 -20 -20 -20 -20 -20 -20 -20 -20 -20 -20 -20 -20 -20 -20 -20 -20 -20 -20 -20 -20 -20 -20 -20 -20 -20 -20 -20 -20 -20 -20 -20 -20 -20 -20 -20 -20 -20 -20 -20 -20 -20 -20 -20 -20 -20 -20 -20
-20 -20 -20 -20 -20 -20 -20 -20 -20 -20 -20 -20 -20 -20 -20 -20 -20 -20 -20 -20 -20 -20 -20 -20 -20 -20 -20 -20 -20 -20 -20 -20 -20 -20 -20 -20 -20 -20 -20 -20 -20 -20 -20 -20 -20 -20 -20 -20 -20 -20 -20 -20 -20 -20
-20 -20 -20 -20 -20 -20 -20 -20 -20 -20 -20 -20 -20 -20 -20 -20 -20 -20 -20 -20 -20 -20 -20 -20 -20 -20 -20 -20 -20 -20 -20 -20 -20 -20 -20 -20 -20 -20 -20 -20 -20 -20 -20 -20 -20 -20 -20 -20 -20 -20 -20 -20 -20 -20
-20 -20 -20 -20 -20 -20 -20 -20 -20 -20 -20 -20 -20 -20 -20 -20 -20 -20 -20 -20 -20 -20 -20 -20 -20 -20 -20 -20 -20 -20 -20 -20 -20 -20 -20 -20 -20 -20 -20 -20 -20 -20 -20 -20 -20 -20 -20 -20 -20 -20 -20 -20 -20 -20
-20 -20 -20 -20 -20 -20 -20 -20 -20 -20 -20 -20 -20 -20 -20 -20 -20 -20 -20 -20 -20 -20 -20 -20 -20 -20 -20 -20 -20 -20 -20 -20 -20 -20 -20 -20 -20 -20 -20 -20 -20 -20 -20 -20 -20 -20 -20 -20 -20 -20 -20 -20 -20 -20
-20 -20 -20 -20 -20 -20 -20 -20 -20 -20 -20 -20 -20 -20 -20 -20 -20 -20 -20 -20 -20 -20 -20 -20 -20 -20 -20 -20 -20 -20 -20 -20 -20 -20 -20 -20 -20 -20 -20 -20 -20 -20 -20 -20 -20 -20 -20 -20 -20 -20 -20 -20 -20 -20
-20 -20 -20 -20 -20 -20 -20 -20 -20 -20 -20 -20 -20 -20 -20 -20 -20 -20 -20 -20 -20 -20 -20 -20 -20 -20 -20 -20 -20 -20 -20 -20 -20 -20 -20 -20 -20 -20 -20 -20 -20 -20 -20 -20 -20 -20 -20 -20 -20 -20 -20 -20 -20 -20
-20 -20 -20 -20 -20 -20 -20 -20 -20 -20 -20 -20 -20 -20 -20 -20 -20 -20 -20 -20 -20 -20 -20 -20 -20 -20 -20 -20 -20 -20 -20 -20 -20 -20 -20 -20 -20 -20 -20 -20 -20 -20 -20 -20 -20 -20 -20 -20 -20 -20 -20 -20 -20 -20
-20 -20 -20 -20 -20 -20 -20 -20 -20 -20 -20 -20 -20 -20 -20 -20 -20 -20 -20 -20 -17 -20 -20 -20 -20 -20 -20 -20 -20 -20 -20 -20 -20 -20 -20 -20 -20 -20 -20 -20 -20 -20 -20 -20 -20 -20 -20 -20 -20 -20 -20 -20 -20 -20
-20 -20 -20 -20 -20 -20 -20 -20 -20 -20 -20 -20 -20 -20 -20 -20 -20 -20 -20 -20 -17 -16 -18 -19 -20 -20 -20 -20 -20 -20 -20 -20 -20 -20 -20 -20 -20 -20 -20 -20 -20 -20 -20 -20 -20 -20 -20 -20 -20 -20 -20 -20 -20 -20

GFSWCAN_prec_radar_168.txt.gz
Reflectivity
3 18 15 11 19 18 -18 -20 5 20 18 -10 -20 -6 -5 20 6 22 28 29 26 22 14 -19 -17 -20 -8 21 17 -13 -11 -5 17 25 24 10 -18 -20 9 -20 -0 -20 -8 -9 9 21 17 -20 -20 -20 -16 -20 -20 -20
-15 18 15 -18 12 15 -20 -20 -1 21 -10 -20 -20 -20 -20 17 16 24 20 17 24 13 17 18 1 -20 -20 -20 20 -20 -15 1 26 22 7 12 15 22 6 9 20 14 -2 15 13 0 -20 -20 -20 -20 -20 -2 -20 -20
15 17 9 -13 15 -20 -20 17 19 19 18 20 -7 -20 -20 -10 15 -19 16 23 7 1 9 -9 -14 -20 -20 -20 -20 -20 -20 -6 26 27 26 23 18 4 21 7 21 -20 -20 -19 -18 -20 -20 -20 -20 -20 -16 -20 -20 -20
18 15 -3 -20 -20 -20 -18 -20 17 19 19 10 -20 -20 -20 0 -1 -20 16 19 -4 29 23 -2 -20 -20 -20 -20 -20 -20 -20 -20 7 28 38 20 22 -11 -20 -20 20 6 -20 -15 -20 -20 -20 -20 -15 16 15 8 -20 -20
14 13 -20 -20 -20 -13 16 15 15 -20 5 -20 -20 -20 -20 -17 16 20 19 18 20 21 17 8 -17 -20 -20 -20 -20 -19 2 0 15 23 19 24 3 2 -20 -13 -20 -20 -14 5 -19 16 24 0 13 -18 -13 -20 -20 -20
17 -20 -20 -20 -20 -20 -17 -19 -20 -20 -20 -20 -20 -20 -20 -20 -5 -5 11 -20 -20 9 18 5 -20 -20 -20 -20 -20 -20 8 13 17 -11 -7 -16 -19 -19 6 -20 -20 -20 -20 -20 -20 22 12 -9 -11 -20 -19 -20 -20 -20
18 8 -20 -20 -20 -20 -20 7 5 -20 -20 -20 -20 -20 -19 10 9 13 -11 9 2 7 11 6 2 -9 -8 10 8 10 2 13 8 -5 10 -1 8 -13 6 -15 -20 -20 -20 -3 32 21 7 14 12 -12 -20 -20 -20 -20
17 -20 -20 -20 -20 -20 -20 8 -4 -20 -20 -20 -20 -4 22 20 13 12 -8 22 33 26 19 14 22 5 2 -3 3 -6 4 15 27 25 20 13 7 7 6 -20 -20 -20 9 21 15 -4 5 -6 -20 -20 -20 -20 -20 -20
16 -5 -10 -20 -20 -20 -20 -20 -20 -20 -20 -20 -20 22 21 9 19 -14 -20 4 9 12 27 -6 0 0 -7 10 24 32 31 17 27 12 6 2 11 11 -20 -20 -20 -9 -15 12 8 6 -14 -20 -20 -20 -20 -20 -20 -20
-14 20 14 -20 -20 -9 -20 -20 -20 -20 -20 -20 18 37 23 5 -20 -20 12 23 23 10 10 11 -8 21 -9 -2 28 26 28 19 9 11 12 16 8 -20 -20 -20 -20 -18 -3 12 12 -2 -20 -20 -20 -20 -20 -20 -20 -20
17 3 -13 -14 -20 -20 1 -20 -15 9 19 14 28 27 7 -2 15 18 12 13 13 20 8 -3 -20 -20 -12 12 19 23 18 3 13 4 7 17 1 -20 -19 5 -18 -16 -3 8 2 -20 -20 -20 -20 -20 -20 -20 -20 -20
32 26 11 1 -0 -20 -20 -20 -13 8 6 -20 8 24 19 4 11 25 -2 9 1 3 -8 8 11 21 26 31 29 7 7 1 -9 -12 16 -14 6 -20 -20 -20 -20 -19 -9 -20 -20 -20 -20 -20 -20 -20 -20 -20 -20 -20
15 23 19 3 10 -18 -20 -20 -20 -18 -20 9 22 21 -1 -10 18 -16 -20 -12 -1 -14 5 6 27 25 24 28 23 14 5 -13 -20 -19 -17 -19 -20 -20 -19 -20 -20 -20 -20 -20 -20 -20 -20 -20 -20 -20 -20 -20 -20 -20
14 18 19 -12 8 -12 -20 -20 -20 -20 19 23 18 -1 -1 -19 -20 -20 -20 -20 -20 -20 -20 3 20 21 -16 -20 -20 -20 -20 -16 -6 -20 -20 -20 -20 -20 -20 -20 -20 -20 -20 -20 -20 -20 -20 -20 -20 -20 -20 -20 -20 -20
13 17 19 3 -11 12 3 -20 -20 12 21 13 -20 -3 -20 -20 -20 -20 -20 -20 -20 -20 -20 -20 -12 -19 -20 -17 -20 -20 -20 -20 -20 -20 -20 -20 -20 -20 -20 -20 -20 -20 -20 -20 -20 -20 -20 -20 -20 -20 -20 -20 -20 -20
15 21 8 6 2 -17 -20 -8 23 16 -20 -15 -20 -20 -20 -10 -4 -19 -20 -15 -20 -20 -17 -20 -20 -20 -20 -20 -20 -20 -20 -20 -20 -20 -20 -20 -20 -20 -20 -20 -20 -20 -20 -20 -20 -20 -20 -20 -20 -20 -20 -20 -20 -20
5 7 4 4 7 -19 6 20 22 -13 -20 -17 4 -20 -20 -2 6 -0 -7 -20 -20 -20 5 -20 -20 -20 -20 -20 -20 -20 -20 -20 -20 -17 -3 -20 -20 -20 -20 -20 -20 -20 -20 -20 -20 -20 -20 -20 -20 -20 -20 -20 -20 -20
6 16 -17 11 7 9 -14 -20 -15 -0 -20 -20 -8 -20 -1 -20 -20 -20 -20 -20 -20 -20 -20 -20 -20 -20 -20 -20 -20 -20 -20 -17 -20 -20 -20 -18 -20 -20 -20 -20 -20 -20 -20 -20 -20 -20 -20 -20 -20 -20 -20 -20 -20 -20
-6 -20 -20 -8 -20 -10 -4 -10 9 1 -20 -20 -20 -20 -18 -20 -20 -20 -20 -20 -20 -20 -20 -20 -20 -20 -20 -20 -13 -20 -20 -20 -19 -20 -20 -20 -20 -20 -20 -20 -20 -20 -20 -20 -20 -20 -20 -20 -20 -20 -20 -20 -20 -20
-19 -20 -20 -20 -20 -17 9 8 19 -11 -15 -16 -15 -16 -20 -20 -20 -18 -20 -20 -20 -20 -19 -20 -20 -20 -20 -20 -20 2 -7 -20 -20 -18 -16 -20 -20 -20 -20 -20 -20 -20 -20 -20 -20 -20 -20 -20 -20 -20 -20 -20 -20 -20
-20 -20 -20 -20 -20 -20 -20 -20 -20 -20 -20 -20 -20 -20 -20 -20 -15 -9 -18 -20 -13 -20 -20 -20 -20 -20 -17 -1 -20 -20 -20 -20 -20 -20 -20 -20 -20 -20 -20 -20 -20 -20 -20 -20 -20 -20 -20 -20 -20 -20 -20 -20 -20 -20
-20 -20 -20 -20 -20 -20 -20 -20 -20 -20 1 -3 -20 -20 -20 -18 -13 -19 -20 -19 -20 -20 -20 -20 -20 -20 -20 -20 -2 -20 -20 -20 -20 -20 -20 -20 -20 -20 -20 -20 -20 -20 -20 -20 -20 -20 -20 -20 -20 -20 -20 -20 -20 -20
-20 -19 -20 -20 -20 -20 -20 -20 -20 -20 -11 -11 -20 -20 -20 -20 -20 -20 -14 -19 -20 -20 -5 -20 -20 -11 -20 -20 -20 -20 -20 -20 -20 -20 -20 -20 -20 -20 -20 -20 -20 -20 -20 -20 -20 -20 -20 -20 -20 -20 -20 -20 -20 -20
-12 -20 -20 -20 -20 -20 -20 -20 -20 -20 -20 -20 -20 -20 -20 -20 -20 -20 -20 -20 -20 -17 -6 -20 -19 -4 -10 -20 -20 -20 -20 -20 -20 -20 -20 -20 -20 -20 -20 -20 -20 -20 -20 -20 -20 -20 -20 -20 -20 -20 -20 -20 -20 -20
-20 -20 -20 -20 -20 -20 -20 -20 -20 -20 -20 -20 -20 -20 -20 -20 -20 -20 -20 -20 -20 -9 -20 -20 -20 -20 -20 -20 -4 -20 -20 -20 -20 -20 -20 -20 -20 -20 -20 -20 -20 -20 -20 -20 -20 -20 -5 -3 -4 -2 -2 -1 -3 -12
-20 -20 -20 -20 -20 -20 -20 -20 -20 -20 -20 -20 -20 -20 -20 -20 -20 -20 -20 -20 -20 -20 -20 -13 -9 -20 -20 -20 -20 -20 -20 -20 -20 -20 -20 -20 -20 -20 -20 -10 -9 -16 -20 -20 -20 -20 -17 -11 -3 -20 -20 -14 -20 -5
-20 -20 -20 -20 -20 -20 -20 -20 -20 -20 -20 -20 -20 -20 -20 -20 -20 -20 -20 -20 -20 -20 -20 -20 -20 -20 -20 -20 -20 -20 -20 -20 -20 -20 -20 -20 -20 -20 -20 -20 -20 -20 -20 -20 -20 -20 -16 -20 -20 -20 -5 -2 -3 -11
-11 -20 -20 -20 -20 -20 -20 -20 -20 -20 -20 -20 -20 -20 -20 -20 -20 -12 -18 -20 -20 -20 -20 -20 -20 -20 -20 -20 -20 -20 -8 -15 -20 -20 -20 -20 -20 -20 -20 -20 -20 -20 -20 -20 -20 -20 -20 -20 -20 -20 -20 -6 -18 -3
-20 -20 -20 -20 -20 -20 -20 -20 -20 -19 -20 -2 -10 -20 -20 -20 -20 -20 -20 -20 -20 -20 -20 -20 -20 -20 -20 -20 -18 -20 -20 -20 -20 -20 -20 -19 -6 -6 -20 -20 -20 -20 -20 -20 -20 -20 -20 -20 -20 -20 -1 -5 -6 -18
-20 -20 -20 -20 -20 -20 -20 -20 -9 -1 -14 -16 -13 -12 -20 -16 -20 -20 -20 -20 -10 -20 -9 -17 -5 -5 -15 -17 -12 -8 -15 -20 -20 -20 -20 -20 -20 -20 -20 -20 -20 -20 -20 -20 -20 -15 -18 -20 -20 -20 -20 -20 -20 -20
-20 -20 -20 -20 -20 -20 -20 -14 -20 -4 3 2 -4 2 1 -16 -20 -20 -20 -20 -20 -17 -5 -2 -1 -1 -14 -16 -19 -20 -5 -3 -20 -20 -20 -20 -20 -20 -20 -20 -20 -10 -10 -9 -4 -3 -20 -4 -3 -20 -20 -20 -20 -20
-20 -20 -20 -20 -20 -20 -20 -7 -5 -19 -4 1 0 7 -20 -20 -19 -4 -20 -20 -17 -8 -20 -19 -7 -19 -20 -20 -20 -20 -20 -20 -20 -20 -20 -20 -20 -20 -20 -20 -20 -19 -5 -20 -20 -20 -20 -20 -20 -20 -20 -20 -20 -20
-20 -20 -20 -8 -5 -9 2 -20 -4 -19 2 -9 -3 -7 4 4 -11 -20 -20 -19 -17 -11 -0 -7 -5 -20 -20 -20 -20 -20 -20 -20 -20 -20 -20 -20 -20 -20 -20 -7 -2 -3 -20 -16 -20 -20 -20 -20 -20 -20 -20 -20 -20 -20

GFSWCAN_prec_radar_171.txt.gz
Reflectivity
-0 -7 16 17 18 17 18 16 16 11 12 17 -20 -20 16 21 9 20 4 1 32 31 14 14 11 37 23 8 17 10 21 25 24 16 -13 17 21 -8 -2 -14 -9 18 21 13 14 24 18 -20 -20 -20 -20 -20 -20 -20
14 -17 2 -13 16 15 13 13 14 -13 19 20 -18 -14 -20 -20 16 7 16 32 30 34 22 18 18 28 -18 20 25 25 32 24 27 19 22 9 7 11 15 9 -20 17 -18 11 15 -5 -20 -20 -20 -20 -20 -20 -20 -20
-20 -8 -14 -20 16 -19 -20 23 13 10 11 20 9 -20 -20 -20 -20 -20 13 37 27 31 -20 -19 -20 13 -20 -13 -20 15 -7 17 -5 -20 -20 -15 19 -4 14 10 -14 -20 0 24 16 -20 -19 -20 -20 -7 -20 -20 -20 -20
-20 -13 -7 15 18 15 2 -5 -12 -4 -6 21 19 -20 -20 -20 -20 -20 18 23 23 20 12 -17 -20 -20 -20 -20 -20 -20 10 23 10 -5 -6 -14 17 21 -4 -20 18 -7 21 35 1 -4 -20 -20 -20 -20 -20 -20 -20 -20
-20 -19 -1 10 14 -20 -20 -7 -20 15 15 18 17 -20 -20 -20 11 -12 20 21 18 19 19 12 -17 -20 -20 -20 -20 -20 5 1 25 20 10 5 -20 -20 -18 9 20 20 10 15 19 -4 14 -20 22 7 -20 -6 -3 20
-20 -0 17 14 -2 -20 -20 12 -4 3 -20 7 -20 -20 -20 -20 -20 24 22 15 18 19 17 8 -20 -20 -20 -20 -20 2 -12 10 27 25 -9 3 -20 -19 20 19 -20 -20 -20 -20 -20 -20 -13 0 12 26 34 12 4 1
11 -14 17 12 -20 -20 -20 12 -20 -20 -20 -20 -20 13 -19 -20 -12 23 24 23 -19 21 21 15 -8 -20 -20 21 12 8 10 19 0 25 1 0 3 19 13 -12 -20 -20 -20 -20 -17 -20 -8 8 24 23 12 14 9 -18
6 5 15 6 -20 -20 -20 7 12 -1 -20 -15 -20 12 1 -14 9 20 13 -20 4 22 21 18 12 6 -1 3 9 -9 13 16 -6 -1 7 16 9 23 7 -20 -20 -20 -20 -20 -20 -20 1 22 25 31 16 8 -2 -15
12 13 17 -20 -20 -20 -13 -15 -5 10 -20 -20 -20 -13 17 20 -2 15 -13 -20 8 12 17 16 16 26 5 -1 -0 2 2 14 3 7 13 -2 11 19 -18 -20 -20 -20 -20 -20 -20 4 21 20 19 8 2 -18 -20 -20
12 15 -15 -20 -20 -20 -20 -20 14 -20 -20 -20 -0 18 7 -9 -20 -19 -18 12 18 13 14 -3 10 23 -9 9 11 14 7 14 17 4 -19 18 1 -20 -20 -20 -20 2 -20 -3 5 9 15 9 -5 -20 -20 -20 -20 -20
5 17 -15 -20 -20 -20 -20 16 -20 -13 3 -12 -20 -4 34 -20 8 22 19 11 7 3 4 -9 -20 15 -10 21 13 13 24 22 18 19 11 15 1 -20 -20 -20 -20 -20 -20 -7 22 1 -11 -6 -20 -20 -20 -20 -20 -20
1 3 14 -20 -20 -20 -0 -20 -20 -20 -13 -12 21 25 21 18 21 8 13 14 19 20 21 11 13 8 12 1 5 21 11 13 10 12 15 13 3 4 -7 -20 3 -2 -11 12 3 -2 -20 -20 -20 -20 -20 -20 -20 -20
-20 -13 -14 -20 -7 -20 -18 10 -20 -9 -20 14 29 39 21 12 13 19 15 3 18 20 21 19 26 24 14 23 28 25 14 10 -13 9 11 -4 -20 -18 -20 -20 -16 -17 -20 -6 -20 -20 -20 -20 -20 -20 -20 -20 -20 -20
-20 -1 -15 -20 -20 -20 -20 -14 -20 -20 20 23 13 15 1 2 -20 -20 -19 13 29 23 15 34 35 27 24 22 19 15 9 -20 2 -4 -4 -19 5 5 -20 -20 -19 -20 -20 -20 -20 -20 -20 -20 -20 -20 -20 -20 -20 -20
5 9 10 -7 -1 -12 -20 -20 -20 -20 11 29 16 16 -10 -12 -10 -5 -9 -16 -8 -0 6 29 16 27 28 14 -0 3 -8 -1 -2 4 -3 -20 -20 -20 -20 -20 -20 -20 -20 -20 -20 -20 -20 -20 -20 -20 -20 -20 -20 -20
13 11 10 12 -20 -20 -20 -20 -16 7 25 20 -7 -13 3 2 7 2 -3 -20 -20 -9 -0 25 15 18 13 1 -7 -20 -20 -20 5 -10 -13 -20 -20 -7 -20 -20 -20 -20 -20 -20 -20 -20 -20 -20 -20 -20 -20 -20 -20 -20
24 14 -19 -20 -20 -20 4 16 -10 34 18 -1 8 -2 -7 -12 7 4 9 -1 -18 2 16 17 9 15 -17 -8 -20 -20 -10 -1 -20 -7 -13 -20 -20 -20 -20 -20 -20 -20 -20 -20 -20 -20 -20 -20 -20 -20 -20 -20 -20 -20
3 10 8 15 10 17 20 29 20 -20 -5 -3 4 11 -5 -1 11 12 -20 -10 11 17 7 11 -20 -20 -17 -15 -14 -0 -20 -20 -20 -18 -20 -20 -20 -20 -20 -20 -20 -20 -20 -20 -20 -20 -20 -20 -20 -20 -20 -20 -20 -20
-7 -7 -20 12 4 23 20 -14 5 3 -2 1 -1 -14 -5 -0 -13 -12 -10 -20 -9 9 9 -9 -9 4 -2 3 -20 -20 -16 -20 -20 -20 -9 -20 -20 -9 -20 -20 -20 -20 -20 -20 -20 -20 -20 -20 -20 -20 -20 -20 -20 -20
-20 -20 -20 4 -2 14 -10 3 -6 -13 13 6 -8 -5 2 -7 -7 10 0 -0 -10 14 13 -3 3 -20 -20 -20 -20 -16 8 4 -20 -3 -5 3 -20 -20 -20 -20 -20 -20 -20 -20 -20 -20 -20 -20 -20 -20 -20 -20 -20 -20
-20 -20 15 17 23 21 18 14 7 16 -16 1 -8 2 9 -20 -17 8 10 -20 16 12 14 -3 -20 -20 7 -16 -20 -3 -9 -20 -4 -1 -2 4 -12 -20 -20 -20 -20 -20 -20 -20 -20 -20 -20 -20 -20 -20 -20 -20 -20 -20
-20 -19 -14 -19 8 -8 -16 -4 -10 -4 -8 -10 -11 -2 7 10 0 -0 -19 3 12 16 -20 -20 -20 -20 -19 -20 -4 -5 -15 -20 -20 -10 -20 -12 -15 -20 -20 -20 -20 -20 -20 -12 -20 -20 -20 -20 -20 -20 -20 -1 -13 -4
-18 -19 -20 -20 -20 -20 -11 -20 4 2 -4 3 6 5 10 7 -5 -20 -17 2 5 -20 -20 -17 -9 -1 -20 -20 -20 -20 -13 -20 -20 -20 -20 -20 -20 -20 -20 -20 -20 -11 -20 -20 -20 -20 -20 -20 -20 -17 -6 -12 -2 -2
16 14 3 -20 -20 -20 -20 -15 -20 -20 -20 2 6 1 -16 -8 -19 -2 -17 -17 -20 -20 -20 -20 -5 -2 -5 -13 -3 -20 -20 -13 -20 -20 -20 -20 -20 -20 -20 -20 -20 -20 -20 -20 -20 -20 -20 -20 -20 -20 -14 -4 -4 1
-12 -11 -20 -20 -20 -20 -20 -20 -20 -20 -20 -2 -20 -20 -20 -20 3 2 -20 -20 -20 -20 -19 -20 -3 -5 -16 -1 -20 -2 -20 -20 -20 -4 -20 -20 -20 -20 -20 -20 -20 -20 -20 -6 -20 -20 -14 -19 -5 -12 -7 -20 -4 -5
-20 -20 -20 -20 -17 -20 -20 -20 -20 -20 -20 -20 -20 -20 -20 -2 -17 -20 -20 -20 -20 -9 -16 -20 -13 2 3 -10 -12 -10 -4 -20 -20 -20 -18 -20 -20 -20 -14 -20 -3 -10 -20 -1 0 -20 -6 -20 -20 -20 -20 -10 -5 -2
-20 -20 -20 -20 -20 -20 -4 -9 -20 -20 -20 -20 -20 -20 -20 -20 -20 -20 -20 -9 -20 -3 -17 -20 1 4 -14 -13 -8 -20 -20 -14 -20 -20 -20 -20 -20 -20 -1 -0 -2 -5 -20 -20 -19 -20 -20 -19 -7 -20 -20 -18 -13 -20
-20 -20 -20 -20 -5 -14 -4 -7 -20 -20 -20 -20 -20 -20 -20 -20 -20 -20 -10 -18 -20 -20 -20 -12 -20 -3 -20 -20 -20 -20 -20 -20 -20 -20 -20 -20 -20 -18 -12 -20 -20 -20 -13 -20 -20 -20 -20 -20 -18 -4 -18 -4 4 -1
-20 -20 -20 -20 -20 -11 -18 -3 -2 -15 -20 -14 1 -18 -20 -20 -19 -16 -9 -7 -19 -17 -20 -1 -4 -1 -10 -20 -20 -17 -8 -8 -3 -18 -18 -5 -20 -2 -17 -19 -3 -17 -10 -18 2 7 -16 -1 -14 -0 6 7 10 7
-20 -20 -20 -20 -20 -20 2 -20 -1 3 -13 -3 -19 -12 -20 -20 -5 -20 -10 -20 -20 -11 -16 6 1 -1 -2 -2 -0 0 3 0 -3 9 0 -1 -7 -20 -13 -20 -20 -11 -20 2 -19 -3 -7 -14 -19 -2 -4 -3 0 5
-20 -20 -20 -18 -20 -20 8 -1 -9 -12 -0 -0 -2 4 -1 1 5 -20 -20 -20 -13 5 0 -4 3 3 -2 0 -2 -4 -1 -0 -20 -20 -20 -12 -10 -15 -13 -16 -20 -2 -20 -20 -20 -14 -14 -2 -6 -12 -2 -3 -2 -3
-19 -20 -20 -20 -20 -19 -20 -7 3 -1 3 3 2 6 9 11 6 -16 -5 -4 -5 -2 1 -6 -9 2 1 -0 4 -11 -19 -19 -4 -20 -20 -7 -20 -16 -16 -20 -19 -20 -20 -20 -20 -14 -14 -20 -20 -17 -9 -0 -1 -2
-20 -20 -20 -20 -20 -9 15 11 5 -20 -20 -20 -10 1 6 13 11 -18 -3 -4 -2 -18 -15 6 17 8 -11 2 5 -5 -15 -4 -20 -20 -20 -11 -2 -18 -15 -20 -20 -20 -5 -1 1 -20 -20 -4 -0 -3 -5 -4 -20 -20

GFSWCAN_prec_radar_174.txt.gz
Reflectivity
10 14 11 14 12 12 13 13 16 18 17 16 7 -20 -20 -20 -5 22 18 -2 1 11 -13 -1 -2 7 -9 -12 -13 -20 20 22 26 20 21 5 11 -20 -8 -20 -20 8 19 11 13 26 18 -20 -20 -20 -20 -20 -20 -20
-20 1 -19 -20 -20 -3 13 10 13 16 16 18 -20 -13 -20 -20 -20 22 16 -9 6 18 7 -5 22 12 -19 -20 8 27 17 27 21 27 28 -9 16 13 14 20 2 18 18 18 16 1 -20 -20 -20 -20 -20 -20 -20 -20
-18 -16 -20 -20 -20 -20 14 15 12 15 7 -20 -13 -14 -14 -20 -20 -20 14 19 17 38 27 -14 5 -20 -20 -9 24 42 30 13 32 20 16 -9 12 15 22 -18 14 -17 -18 22 23 -3 -7 1 -20 -3 -6 22 15 -18
-16 12 -16 -20 -20 -20 16 12 11 14 -5 -20 -1 -1 -12 -17 -20 15 16 23 29 38 29 -20 -20 -5 -20 -20 -4 -7 17 26 23 30 2 -13 -20 -20 -20 -20 2 4 -20 16 -20 -20 -20 22 14 25 23 23 7 -20
5 -15 -19 -19 -16 -7 18 -4 -15 -20 -20 -20 -20 -5 -8 -20 -20 7 16 20 22 27 24 -6 -16 -20 -20 -20 -20 -20 -20 -18 19 28 -17 4 -20 -15 -20 -6 3 -16 17 23 -18 7 19 18 21 -20 -8 -20 -20 -20
8 -20 -20 -20 -11 15 9 -20 -20 -20 -20 8 -20 -20 -19 -20 -20 19 21 18 -11 22 21 4 -20 -20 -20 -20 -20 -20 -20 -4 9 23 1 -18 -20 14 10 -20 -20 -20 -20 -20 -11 13 33 12 -20 -20 -20 -20 1 11
-20 -20 -20 -0 16 7 -20 -20 -20 -20 -20 17 17 16 -20 -20 -20 24 24 9 -8 23 20 8 -20 -20 -20 -20 -18 -16 -13 7 15 14 12 -3 -20 18 24 10 -17 -15 -11 -16 26 26 -20 -16 -20 -20 -8 2 17 38
-20 -20 -0 17 14 6 -20 -20 -3 10 -5 16 -20 -20 -20 -20 -2 6 7 9 -1 -9 22 10 -20 -20 -20 -20 15 29 8 24 2 11 9 3 -9 18 5 -20 -20 -20 -20 -20 -20 -20 -20 -20 -20 -20 -13 17 19 25
-20 -20 2 14 13 -14 -20 -20 -12 -15 6 -20 -20 -19 -18 16 12 -20 -12 -11 -1 -20 17 4 7 10 12 27 3 -12 1 14 -17 -4 -3 7 -14 9 -20 -20 -20 -20 -20 -20 -18 -20 -20 -20 -20 -15 17 27 5 -5
-20 -20 14 23 6 -20 -20 -20 -20 -20 -20 -20 -11 5 -20 -9 -20 -19 -11 19 23 11 7 -6 -8 17 40 -7 -2 -1 7 -11 15 -20 -19 8 -17 -19 -16 -20 -20 -20 -20 -20 14 -20 -20 -20 6 21 2 -13 6 8
-14 10 14 15 -4 -20 -20 -16 1 9 5 2 -14 -8 7 24 21 23 19 7 7 9 -8 -20 -20 -20 5 30 20 1 7 -4 22 15 15 16 9 12 14 -6 -20 -20 -20 -20 -20 -20 -20 -3 -14 -9 8 4 -18 -20
-2 8 17 14 -20 -20 -20 -2 4 -17 -20 -4 17 3 10 27 23 6 14 11 11 13 -0 -15 -16 -4 1 13 20 16 12 16 16 14 19 13 8 11 11 0 -20 -20 -18 -3 -20 6 17 -10 7 -12 -20 -20 -20 -20
10 15 20 7 -20 -20 -20 -15 -20 -20 -20 -1 19 7 20 -0 20 10 16 12 15 12 21 32 25 28 27 22 15 10 18 14 11 17 14 16 9 9 7 -20 -20 -16 -8 8 10 3 -20 -19 -20 -20 -20 -20 -20 -20
11 19 17 -17 -20 -20 -20 -20 -20 -20 10 22 3 16 11 11 -20 3 17 19 24 28 25 28 32 23 27 12 18 6 18 10 2 5 -14 -5 -5 -12 -18 6 -10 -15 13 -7 10 -14 -20 -20 -20 -20 -20 -20 -20 -20
12 15 4 -2 -20 -20 -20 -20 -20 -20 11 14 22 20 -7 -13 -10 15 9 -6 -14 -3 7 16 36 6 26 16 -3 12 8 1 -7 12 19 -20 -20 6 8 -5 20 -10 -20 -20 -20 -20 -20 -20 -20 -20 -20 -20 -20 -20
11 -8 20 14 -20 -20 -20 -17 -20 7 19 27 19 1 13 -7 -20 1 -3 6 -20 1 7 13 31 14 10 12 15 5 2 3 7 -19 -20 -20 -20 -9 22 18 -16 -20 -20 -20 -20 -20 -20 -20 -20 -20 -20 -20 -20 -20
-20 6 14 -16 -20 -20 0 13 10 -9 9 12 -17 6 3 2 -19 -6 10 -0 4 1 16 20 9 16 -14 10 4 -2 -5 -4 -18 -20 -20 -20 -20 -20 -20 -19 -20 -20 -20 -20 -20 -20 -20 -20 -20 -20 -20 -20 -20 -20
3 4 -20 -20 -20 -13 16 11 -4 -3 9 -20 -1 -20 -2 6 -17 -8 7 8 -12 9 17 23 16 -17 -2 -4 10 29 -11 -20 -20 -20 -20 -20 -20 -20 -20 -20 -20 -20 -20 -20 -20 -20 -20 -20 -20 -20 -20 -20 -20 -20
-6 -4 -20 -20 -6 -17 -20 3 29 18 3 -8 -4 -5 -11 -17 -6 5 -6 -7 -13 -9 17 19 -2 -10 12 -5 -16 -20 -20 -10 1 -20 -20 -20 -20 -20 -20 -20 -20 -20 -20 -20 -20 -20 -20 -20 -20 -20 -20 -20 -20 -20
-20 -20 -20 -17 21 28 3 -9 -20 -3 -20 6 11 8 2 1 -2 8 -20 -11 -1 6 18 8 -18 1 6 -20 -20 -20 -14 -4 -20 -18 -5 -6 -20 -20 -20 -20 -20 -20 -20 -20 -20 -20 -20 -20 -20 -20 -20 -20 -20 -20
-14 -20 -20 13 15 20 18 7 -4 -14 7 5 5 -20 -4 -20 -20 -2 -0 -11 4 13 9 -20 -11 -5 1 -11 -20 -20 -20 -11 -1 9 -20 -2 -1 -20 -9 -20 -20 -20 -20 -20 -20 -20 -20 -20 -20 -20 -20 -10 -6 -20
20 -20 17 -6 19 12 6 5 10 7 0 14 -18 -4 11 -18 -17 -9 -6 -4 2 -20 -13 12 9 -20 -20 -20 -20 -20 -18 -20 -20 -9 -1 -20 -2 -8 -18 -20 -20 -20 -20 -20 -20 -20 -20 -20 -20 -20 -6 -20 -20 -20
-8 -15 3 4 10 -8 -4 -8 8 11 16 19 10 -16 10 8 17 -20 -10 -9 -17 -14 -7 -15 1 -20 -20 -20 -20 -15 -20 -20 -19 -20 -17 -20 -20 -19 -17 -20 -12 -20 -20 -20 -20 -20 -20 -20 -19 -17 -20 -17 -3 -13
7 26 1 -2 -20 5 -20 -10 -3 -6 -6 -16 4 -17 -4 10 -17 2 -15 -20 9 -20 -20 -20 -20 -20 -20 -20 -5 -20 -20 -20 -20 -20 -20 -20 -20 -20 -20 -20 -20 -3 -20 -20 -20 -20 -20 -9 -19 -6 -14 -0 -2 -8
-20 -9 -7 -17 -20 -20 -3 3 -4 -4 -2 10 -5 -2 12 -20 -18 9 -19 -16 11 -19 -20 -20 2 -1 -7 -20 3 -20 -20 -20 -20 -20 -14 -10 -20 -20 -20 -20 -20 -20 -20 -20 -1 -20 -12 -4 -20 -9 -1 -0 -16 4
-20 -20 -20 -6 1 -19 -6 -9 13 13 0 -6 5 -10 -20 -5 6 -20 -20 -20 -20 -15 -2 -20 -15 -6 -12 -16 -20 -20 -20 -20 -20 -17 -20 -20 -20 -9 -10 -17 -16 -13 -11 -20 -20 -20 -5 -7 -20 -20 -20 -15 -8 -20
-20 -20 -19 -20 -20 -20 -20 -5 -8 -14 -7 -16 5 7 -3 5 -20 -8 -20 -20 -20 -20 -20 -20 -2 6 10 -2 -17 -10 -20 -20 -20 -20 -20 -20 -20 -13 -20 -13 -20 -20 -16 -20 -12 -20 -20 -20 -13 -20 -20 -20 -1 -16
-20 -20 -20 -20 -20 -20 -2 -4 -0 5 0 -16 -13 -20 -20 2 -5 -20 -20 -20 -20 -20 -20 -12 -10 -3 0 -6 -20 -19 -20 -20 -20 -20 -20 -20 -20 -20 -20 -20 -20 -20 -20 -20 -20 -20 -1 -20 -20 -20 -20 -1 -4 -20
-20 -14 -20 -20 -20 -13 -17 -19 -8 6 -20 -14 -1 2 3 -3 -20 -20 -20 -20 -20 -20 -1 2 3 -3 -1 -5 -11 -8 -19 -13 -4 -18 -5 -18 1 -4 -4 -15 -20 -20 -20 -19 5 6 -16 -14 -16 -10 -20 -5 6 9
-20 -20 -20 -20 -20 -20 -20 13 12 -14 -2 -13 -10 -13 -20 -20 -20 -20 -20 -20 -20 -11 10 0 9 -11 -0 -2 -4 -10 -11 0 -18 2 -1 -1 -11 -20 -20 -20 -20 -7 -15 -16 -17 -20 -10 -17 -20 -5 7 5 3 -4
-20 -20 -20 -20 -20 -20 -20 -12 -15 -20 -20 -4 -9 9 6 -13 -20 -20 -10 -20 -20 -4 -0 -7 1 3 7 3 4 0 1 -8 -14 -20 -20 -20 -20 -10 -17 -20 -20 -20 -20 -6 -19 -11 -5 -8 -0 -20 -20 -7 -11 -6
-14 -19 -20 -20 -20 -20 -20 -20 1 0 2 2 -8 -18 8 9 3 23 2 -19 -19 9 -0 8 14 10 -14 4 8 2 -1 3 -0 -17 -20 -6 -1 -20 -20 -20 -20 -9 -9 -20 2 -6 -20 -3 -19 -20 -1 -20 2 -9
-20 -20 -20 -5 -20 -20 -12 -20 -20 -20 -20 -20 -20 -20 -20 8 12 11 -5 -5 1 -4 -20 -14 -9 -11 7 -16 5 -15 -13 -8 -8 -4 -8 -9 1 5 -5 -17 -2 -20 -20 -10 -0 -20 -16 -6 3 -12 -18 -20 -20 -20